This is the latest recevied weather packets stored in our database for station/object KC5EZZ-2. If no packets are shown the sender has not sent any weather packets the latest 10 day(s).
| Time | Temp. | Humidity | Pressure | Rain* | Wind** | Luminosity | Snow |
|---|---|---|---|---|---|---|---|
| 1787881069 | 25.56° C | - | - | 0 mm | 1.34 m/s, 335° | - | - |
| 1787880767 | 25° C | - | - | 0 mm | 1.79 m/s, 14° | - | - |
| 1787880467 | 25° C | - | - | 0 mm | 1.79 m/s, 347° | - | - |
| 1787880168 | 25° C | - | - | 0 mm | 3.13 m/s, 330° | - | - |
| 1787879865 | 25° C | - | - | 0 mm | 0 m/s | - | - |
| 1787879566 | 25° C | - | - | 0 mm | 1.34 m/s, 243° | - | - |
| 1787879266 | 25° C | - | - | 0 mm | 1.79 m/s, 221° | - | - |
| 1787878963 | 24.44° C | - | - | 0 mm | 1.79 m/s, 246° | - | - |
| 1787878664 | 25° C | - | - | 0 mm | 2.24 m/s, 278° | - | - |
| 1787878364 | 24.44° C | - | - | 0 mm | 2.68 m/s, 236° | - | - |
| 1787878062 | 24.44° C | - | - | 0 mm | 2.68 m/s, 267° | - | - |
| 1787877762 | 24.44° C | - | - | 0 mm | 3.58 m/s, 269° | - | - |
| 1787877463 | 24.44° C | - | - | 0 mm | 2.68 m/s, 246° | - | - |
| 1787877160 | 24.44° C | - | - | 0 mm | 3.13 m/s, 248° | - | - |
| 1787876861 | 24.44° C | - | - | 0 mm | 3.13 m/s, 256° | - | - |
| 1787876561 | 24.44° C | - | - | 0 mm | 1.79 m/s, 264° | - | - |
| 1787876259 | 24.44° C | - | - | 0 mm | 2.24 m/s, 229° | - | - |
| 1787875959 | 24.44° C | - | - | 0 mm | 2.68 m/s, 255° | - | - |
| 1787875660 | 24.44° C | - | - | 0 mm | 2.68 m/s, 221° | - | - |
| 1787875357 | 24.44° C | - | - | 0 mm | 2.68 m/s, 177° | - | - |
| 1787874758 | 24.44° C | - | - | 0.51 mm | 3.13 m/s, 145° | - | - |
| 1787874456 | 24.44° C | - | - | 0.51 mm | 4.92 m/s, 142° | - | - |
| 1787874155 | 25° C | - | - | 0.51 mm | 5.36 m/s, 121° | - | - |
| 1787873856 | 25° C | - | - | 0.51 mm | 3.58 m/s, 125° | - | - |
| 1787873553 | 24.44° C | - | - | 0.51 mm | 3.13 m/s, 100° | - | - |
* Rain latest hour (hover to see other rain measurements)
** Current wind speed in m/s (hover to see current wind gust speed)